[[{"header":{"parameterUnit":"m.s-1","parameterCategory":1,"la1":30.2991,"la2":30.254,"lo1":-89.0895,"lo2":-89.0444,"dy":0.0017,"dx":0.0017,"nx":28,"ny":28,"refTime":"2023-10-03T03:00:00:Z","depth":0,"parameterNumber":2,"parameterNumberName":"U-component_of_WINDS"},"data":[0,0,0,0,0,0,0,0,0,0,0,0,0,0,0,0,0,0,0,0,0,0,0,0,0,0,0,0,0,0,0,0,0,0,0,0,0,0,0,0,0,0,0,0,0,0,0,0,0,0,0,0,0,0,0,0,0,0,-2.3208,-2.3208,0,-2.325,-2.3251,-2.3251,-2.3188,-2.3186,-2.3184,-2.3182,-2.3226,-2.3229,-2.3232,0,0,0,0,0,0,0,0,0,0,0,0,0,-2.3073,-2.3076,-2.3208,-2.3208,-2.3209,-2.325,-2.3251,-2.3251,-2.3189,-2.3186,-2.3184,-2.3181,-2.3225,-2.3228,-2.3232,0,0,0,0,0,0,0,0,0,0,0,0,0,-2.3125,-2.3077,-2.3208,-2.3183,-2.3181,-2.325,-2.3251,-2.3252,-2.3189,-2.3186,-2.3183,-2.318,-2.3223,-2.3228,-2.3233,-2.3329,0,0,-2.3248,-2.325,0,0,0,0,0,0,0,0,-2.3122,-2.313,-2.3186,-2.3185,-2.3183,-2.3211,-2.3219,-2.3277,-2.319,-2.3186,-2.3182,-2.3178,-2.3223,-2.3228,-2.3243,-2.3331,-2.3333,-2.3248,-2.3251,-2.3253,-2.3254,0,0,0,0,0,0,0,-2.3119,-2.3128,-2.3225,-2.3187,-2.3185,-2.3169,-2.3173,-2.323,-2.3223,-2.3186,-2.3182,-2.3188,-2.3222,-2.3239,-2.3244,-2.3333,-2.3248,-2.3252,-2.3255,-2.3257,-2.3501,-2.3505,0,0,0,0,0,0,-2.3118,-2.3125,-2.3223,-2.3226,-2.3144,-2.3175,-2.3179,-2.3205,-2.3222,-2.3221,-2.3191,-2.3185,-2.3232,-2.3238,-2.3245,-2.3358,-2.3253,-2.3258,-2.326,-2.3498,-2.3502,-2.3506,0,0,0,0,0,0,-2.3116,-2.3128,-2.3222,-2.3175,-2.3185,-2.318,-2.321,-2.3208,-2.3224,-2.3225,-2.3224,-2.3209,-2.323,-2.3238,-2.3308,-2.3359,-2.326,-2.3264,-2.3494,-2.3499,-2.3504,-2.3585,0,0,0,0,0,0,-2.3112,-2.3127,-2.3163,-2.3176,-2.3188,-2.3284,-2.3214,-2.3211,-2.3233,-2.3226,-2.3242,-2.3242,-2.3228,-2.3302,-2.3313,-2.3364,-2.3268,-2.3489,-2.3496,-2.3502,-2.3578,-2.3593,-2.3605,0,0,0,0,0,-2.3107,-2.3185,-2.3165,-2.3178,-2.3233,-2.3287,-2.3294,-2.3277,-2.3237,-2.3274,-2.3274,-2.3241,-2.3352,-2.3309,-2.3322,-2.3375,-2.3486,-2.3494,-2.3502,-2.3572,-2.359,-2.3605,0,0,0,0,0,0,-2.3178,-2.3186,-2.3165,-2.3248,-2.3268,-2.3277,-2.3322,-2.3296,-2.3327,-2.3319,-2.3296,-2.3301,-2.3376,-2.3382,-2.3335,-2.3468,-2.3412,-2.3423,-2.3461,-2.3478,-2.3491,-2.3488,-2.3272,0,0,0,0,0,-2.3203,-2.3247,-2.3251,-2.3324,-2.3335,-2.3327,-2.335,-2.3335,-2.3354,-2.3362,-2.3367,-2.3387,-2.3426,-2.3453,-2.3489,-2.3579,-2.3582,-2.3621,-2.3635,-2.3646,-2.3656,-2.3704,-2.3722,-2.3533,-2.3533,-2.3532,0,0,-2.3256,-2.3266,-2.3294,-2.3339,-2.3352,-2.3397,-2.3334,-2.3385,-2.3418,-2.3369,-2.3436,-2.3441,-2.3462,-2.3542,-2.3578,-2.355,-2.3709,-2.3657,-2.3666,-2.3669,-2.3714,-2.3732,-2.3748,-2.3538,-2.3537,-2.3536,0,0,-2.3375,-2.3387,-2.3449,-2.3464,-2.3484,-2.3479,-2.3494,-2.3507,-2.3508,-2.3574,-2.3539,-2.3578,-2.3646,-2.3662,-2.368,-2.3805,-2.3776,-2.3818,-2.3889,-2.3936,-2.3951,-2.3964,-2.4009,-2.4025,-2.3827,-2.3828,-2.3828,0,-2.3438,-2.3504,-2.3484,-2.3537,-2.3558,-2.3516,-2.3579,-2.3594,-2.3626,-2.3641,-2.3609,-2.3693,-2.3704,-2.3788,-2.3819,-2.3834,-2.3851,-2.3815,-2.395,-2.3963,-2.3975,-2.4017,-2.4034,-2.3832,-2.3832,-2.3831,-2.3831,0,-2.3581,-2.3627,-2.3675,-2.3707,-2.3732,-2.379,-2.3779,-2.3808,-2.379,-2.3788,-2.3856,-2.3868,-2.3906,-2.3924,-2.3908,-2.4006,-2.3988,-2.3954,-2.3897,-2.3998,-2.4038,-2.4054,-2.3839,-2.3838,-2.3836,-2.3835,0,0,-2.3745,-2.3765,-2.3783,-2.3796,-2.3816,-2.3852,-2.3908,-2.3944,-2.397,-2.3993,-2.4039,-2.4098,-2.4066,-2.4086,-2.4071,-2.4113,-2.4211,-2.4073,-2.4073,-2.4098,-2.432,-2.4345,-2.4364,-2.4192,-2.4195,-2.4198,-2.4318,0,-2.3864,-2.396,-2.3943,-2.4036,-2.4079,-2.404,-2.4089,-2.4107,-2.4106,-2.4142,-2.4142,-2.4184,-2.4139,-2.4151,-2.419,-2.4191,-2.4255,-2.4182,-2.4235,-2.4237,-2.423,-2.4385,-2.4412,-2.4524,-2.4333,-2.4336,-2.4337,0,-2.4014,-2.4043,-2.4141,-2.4154,-2.4171,-2.4215,-2.4247,-2.4283,-2.4302,-2.4299,-2.4321,-2.4299,-2.4354,-2.4297,-2.4374,-2.4325,-2.4345,-2.4349,-2.4353,-2.4357,-2.4293,-2.4392,-2.456,-2.4577,-2.4362,-2.436,-2.4358,0,-2.4124,-2.4187,-2.4254,-2.4267,-2.4284,-2.4316,-2.4324,-2.434,-2.4363,-2.4392,-2.4407,-2.4441,-2.446,-2.4488,-2.4476,-2.4435,-2.4555,-2.4497,-2.4554,-2.4554,-2.458,-2.4579,-2.4753,-2.4595,-2.4594,-2.4594,-2.4594,0,-2.4258,-2.4319,-2.4303,-2.4344,-2.4412,-2.4392,-2.446,-2.4464,-2.4478,-2.4519,-2.4488,-2.4527,-2.4509,-2.4547,-2.4538,-2.4603,-2.4612,-2.4611,-2.4607,-2.4613,-2.4613,-2.4626,-2.4618,-2.4598,-2.4597,-2.4597,-2.4596,0,-2.4392,-2.4384,-2.4454,-2.4464,-2.4468,-2.4517,-2.4526,-2.4564,-2.4562,-2.4614,-2.4625,-2.4621,-2.4664,-2.4655,-2.4702,-2.4696,-2.4778,-2.4765,-2.4771,-2.4768,-2.4826,-2.482,-2.5014,-2.5039,-2.4864,-2.4866,-2.4867,0,-2.4478,-2.4524,-2.4539,-2.4564,-2.4575,-2.4616,-2.4639,-2.4622,-2.4648,-2.4673,-2.4709,-2.4749,-2.478,-2.4852,-2.4853,-2.4889,-2.4877,-2.4942,-2.4882,-2.4887,-2.4878,-2.4875,-2.488,-2.4954,-2.4956,-2.4958,-2.4959,0,-2.4631,-2.4624,-2.4659,-2.4693,-2.4721,-2.4747,-2.477,-2.4792,-2.4777,-2.4807,-2.4851,-2.4875,-2.4924,-2.4965,-2.4998,-2.5007,-2.4981,-2.4978,-2.4993,-2.5,-2.5001,-2.5001,-2.4803,-2.4974,-2.4972,-2.4971,-2.497,-2.497,-2.4743,-2.4782,-2.4799,-2.4839,-2.4854,-2.4876,-2.4912,-2.4914,-2.495,-2.4988,-2.4975,-2.5025,-2.5044,-2.5086,-2.5099,-2.5138,-2.5114,-2.5135,-2.5141,-2.5147,-2.5154,-2.4995,-2.5144,-2.5144,-2.5143,-2.5143,-2.5143,0,-2.4895,-2.4903,-2.494,-2.4973,-2.5004,-2.4976,-2.5,-2.5028,-2.5072,-2.5091,-2.5123,-2.5173,-2.5212,-2.5217,-2.5254,-2.5284,-2.5273,-2.5295,-2.5292,-2.5295,-2.5174,-2.5157,-2.5303,-2.5303,-2.5303,-2.5303,-2.5303,-2.5303,-2.4977,-2.5042,-2.5037,-2.5109,-2.5117,-2.5166,-2.5182,-2.5202,-2.5217,-2.5274,-2.5307,-2.5309,-2.5322,-2.536,-2.5395,-2.5395,-2.5411,-2.5437,-2.5433,-2.5319,-2.5303,-2.5288,-2.5272,-2.544,-2.544,-2.555,-2.5552,-2.5552]},{"header":{"parameterUnit":"m.s-1","parameterCategory":1,"la1":30.2991,"la2":30.254,"lo1":-89.0895,"lo2":-89.0444,"dy":0.0017,"dx":0.0017,"nx":28,"ny":28,"refTime":"2023-10-03T03:00:00:Z","depth":0,"parameterNumber":3,"parameterNumberName":"V-component_of_WINDS"},"data":[0,0,0,0,0,0,0,0,0,0,0,0,0,0,0,0,0,0,0,0,0,0,0,0,0,0,0,0,0,0,0,0,0,0,0,0,0,0,0,0,0,0,0,0,0,0,0,0,0,0,0,0,0,0,0,0,0,0,1.6331,1.6331,0,1.6349,1.6349,1.6349,1.6343,1.6342,1.6342,1.6342,1.6358,1.6358,1.6359,0,0,0,0,0,0,0,0,0,0,0,0,0,1.6291,1.6292,1.6331,1.6331,1.6331,1.6348,1.6349,1.6349,1.6343,1.6342,1.6342,1.6342,1.6357,1.6358,1.6359,0,0,0,0,0,0,0,0,0,0,0,0,0,1.6308,1.6292,1.6331,1.6331,1.6331,1.6348,1.6349,1.6349,1.6343,1.6342,1.6342,1.6341,1.6357,1.6358,1.6359,1.6378,0,0,1.6363,1.6364,0,0,0,0,0,0,0,0,1.6307,1.631,1.633,1.6331,1.6331,1.6343,1.634,1.6359,1.6343,1.6338,1.6342,1.6341,1.6353,1.6355,1.6359,1.6379,1.638,1.6363,1.6364,1.6364,1.6365,0,0,0,0,0,0,0,1.6306,1.6309,1.6338,1.6331,1.6331,1.6329,1.6331,1.6344,1.6349,1.6339,1.6338,1.6341,1.6353,1.6358,1.6359,1.638,1.6363,1.6364,1.6365,1.6365,1.6416,1.6417,0,0,0,0,0,0,1.6305,1.6308,1.6337,1.6338,1.6317,1.633,1.6332,1.634,1.6348,1.6349,1.6341,1.634,1.6356,1.6358,1.636,1.6382,1.6364,1.6365,1.6366,1.6415,1.6416,1.6417,0,0,0,0,0,0,1.6304,1.6308,1.6337,1.6323,1.6327,1.6331,1.634,1.634,1.6345,1.635,1.6351,1.6345,1.6356,1.6358,1.6374,1.6383,1.6366,1.6367,1.6415,1.6416,1.6416,1.6427,0,0,0,0,0,0,1.6303,1.6307,1.6315,1.6323,1.6327,1.6351,1.634,1.6341,1.6347,1.6346,1.6354,1.6355,1.6356,1.6372,1.6375,1.6384,1.6368,1.6414,1.6415,1.6416,1.6426,1.6428,1.643,0,0,0,0,0,1.6302,1.6317,1.6315,1.6319,1.6337,1.6351,1.6353,1.6354,1.6348,1.6355,1.6359,1.6355,1.6382,1.6374,1.6377,1.6386,1.6413,1.6415,1.6416,1.6425,1.6428,1.643,0,0,0,0,0,0,1.6308,1.6318,1.6316,1.6334,1.6342,1.635,1.6359,1.6357,1.6366,1.6365,1.6365,1.6367,1.6383,1.6386,1.6377,1.6405,1.6396,1.6398,1.6402,1.6405,1.6407,1.6405,1.6369,0,0,0,0,0,1.6312,1.6323,1.6331,1.6346,1.635,1.6354,1.636,1.636,1.6368,1.6371,1.6375,1.6383,1.6393,1.6399,1.6408,1.6427,1.6428,1.6435,1.6437,1.6439,1.644,1.645,1.6453,1.6421,1.6421,1.6421,0,0,1.6319,1.6326,1.6333,1.6347,1.6353,1.6365,1.6357,1.6369,1.6377,1.6373,1.6387,1.6391,1.6399,1.6416,1.6424,1.642,1.645,1.6441,1.6442,1.6443,1.6452,1.6455,1.6458,1.6422,1.6422,1.6422,0,0,1.6338,1.6344,1.6358,1.6364,1.6374,1.6377,1.638,1.6389,1.6391,1.6406,1.6403,1.6413,1.643,1.6436,1.6441,1.6464,1.646,1.6467,1.6478,1.6487,1.649,1.6492,1.6499,1.6502,1.6469,1.6469,1.6469,0,1.6345,1.6363,1.6365,1.6378,1.6384,1.6382,1.6395,1.6401,1.6413,1.6417,1.6413,1.6435,1.644,1.6458,1.6464,1.6468,1.6472,1.6465,1.6489,1.6492,1.6494,1.6501,1.6504,1.6469,1.6469,1.6469,1.6469,0,1.6371,1.6384,1.6393,1.6406,1.6413,1.6426,1.643,1.6438,1.6438,1.6441,1.6456,1.6463,1.6474,1.6478,1.6478,1.6497,1.6494,1.6489,1.648,1.6497,1.6504,1.6507,1.647,1.647,1.647,1.647,0,0,1.6393,1.6408,1.6411,1.6417,1.6428,1.6437,1.645,1.6461,1.6468,1.6476,1.6487,1.6502,1.6498,1.6504,1.6505,1.6513,1.653,1.6508,1.6508,1.6511,1.6551,1.6553,1.6556,1.6528,1.6529,1.6529,1.655,0,1.6412,1.6436,1.6439,1.6459,1.647,1.6469,1.648,1.6488,1.6492,1.6501,1.6505,1.6516,1.651,1.6514,1.6522,1.6526,1.6538,1.6525,1.6537,1.6538,1.6534,1.656,1.6562,1.6581,1.6552,1.6553,1.6553,0,1.6438,1.6448,1.647,1.648,1.6484,1.6495,1.6505,1.6515,1.6524,1.6526,1.6533,1.6533,1.6546,1.6537,1.6555,1.6546,1.6552,1.6554,1.6555,1.6555,1.6546,1.656,1.6587,1.6589,1.6557,1.6557,1.6557,0,1.645,1.647,1.6486,1.6491,1.6503,1.651,1.6515,1.6523,1.653,1.654,1.6544,1.6555,1.656,1.6569,1.6571,1.6565,1.6588,1.658,1.659,1.659,1.6594,1.6593,1.6621,1.6599,1.6599,1.6599,1.6599,0,1.6471,1.6484,1.6492,1.6501,1.6516,1.6519,1.6534,1.6539,1.6546,1.6556,1.6556,1.6565,1.6568,1.6578,1.658,1.6594,1.6597,1.6598,1.6599,1.6598,1.6598,1.6601,1.6599,1.66,1.6599,1.6599,1.6599,0,1.6487,1.6493,1.651,1.6521,1.6524,1.6534,1.6543,1.6552,1.6556,1.6569,1.6572,1.6578,1.6589,1.6593,1.6607,1.6608,1.6624,1.6624,1.6622,1.6621,1.663,1.6629,1.666,1.6664,1.664,1.6641,1.6641,0,1.65,1.651,1.6522,1.6529,1.6535,1.6547,1.6554,1.6558,1.6565,1.6577,1.6584,1.6596,1.6605,1.6624,1.6629,1.664,1.6639,1.6649,1.664,1.6639,1.6638,1.6637,1.6638,1.665,1.6651,1.6651,1.6651,0,1.6521,1.6523,1.6534,1.6546,1.6555,1.6565,1.6574,1.658,1.6585,1.6593,1.6606,1.6613,1.6628,1.6639,1.665,1.6655,1.6654,1.6654,1.6657,1.6656,1.6654,1.6654,1.6625,1.6653,1.6653,1.6653,1.6653,1.6653,1.6535,1.6544,1.6554,1.6566,1.6574,1.6583,1.6592,1.6598,1.6608,1.6621,1.6623,1.6636,1.6645,1.666,1.6665,1.6675,1.6672,1.6676,1.6677,1.6678,1.6678,1.6653,1.6677,1.6677,1.6677,1.6677,1.6677,0,1.6555,1.6562,1.6573,1.6587,1.6597,1.6596,1.6606,1.6614,1.6626,1.6635,1.6645,1.6659,1.667,1.6677,1.6688,1.6695,1.6695,1.6698,1.6697,1.6698,1.668,1.6677,1.6698,1.6698,1.6698,1.6698,1.6698,1.6698,1.6567,1.6582,1.6586,1.6606,1.6612,1.6626,1.6632,1.664,1.6647,1.6663,1.6673,1.6678,1.6685,1.6697,1.6708,1.6709,1.6713,1.6716,1.6718,1.6701,1.6699,1.6697,1.6693,1.6717,1.6717,1.6734,1.6734,1.6734]}]]